Time,TemperatureF,DewpointF,PressureIn,WindDirection,WindDirectionDegrees,WindSpeedMPH,WindSpeedGustMPH,Humidity,HourlyPrecipIn,Conditions,Clouds,dailyrainin,SoftwareType,DateUTC
2013-09-07 00:05:00,55.4,54.8,30.02,ENE,67,0.0,-999.0,98,-99.99,,,0.00,Acu-Link.com,2013-09-07 07:05:00,
2013-09-07 00:20:00,55.4,54.8,30.03,ESE,112,0.0,-999.0,98,-99.99,,,0.04,Acu-Link.com,2013-09-07 07:20:00,
2013-09-07 00:35:00,55.4,54.8,30.03,ESE,112,0.0,-999.0,98,-99.99,,,0.04,Acu-Link.com,2013-09-07 07:35:00,
2013-09-07 00:50:00,55.4,54.8,30.03,ESE,112,0.0,-999.0,98,-99.99,,,0.04,Acu-Link.com,2013-09-07 07:50:00,
2013-09-07 01:06:00,55.4,54.8,30.04,ESE,112,0.0,-999.0,98,-99.99,,,0.04,Acu-Link.com,2013-09-07 08:06:00,
2013-09-07 01:21:00,55.4,54.8,30.04,ESE,112,0.0,-999.0,98,-99.99,,,0.04,Acu-Link.com,2013-09-07 08:21:00,
2013-09-07 01:36:00,55.4,54.8,30.04,ESE,112,0.0,-999.0,98,-99.99,,,0.04,Acu-Link.com,2013-09-07 08:36:00,
2013-09-07 01:51:00,55.4,54.8,30.04,ESE,112,0.0,-999.0,98,-99.99,,,0.04,Acu-Link.com,2013-09-07 08:51:00,
2013-09-07 02:06:00,55.4,54.8,30.05,ESE,112,0.0,-999.0,98,-99.99,,,0.04,Acu-Link.com,2013-09-07 09:06:00,
2013-09-07 02:21:00,53.6,53.0,30.05,East,90,0.0,-999.0,98,-99.99,,,0.05,Acu-Link.com,2013-09-07 09:21:00,
2013-09-07 02:36:00,53.6,53.0,30.05,East,90,0.0,-999.0,98,-99.99,,,0.05,Acu-Link.com,2013-09-07 09:36:00,
2013-09-07 02:52:00,53.6,53.0,30.05,East,90,0.0,-999.0,98,-99.99,,,0.05,Acu-Link.com,2013-09-07 09:52:00,
2013-09-07 03:07:00,53.6,53.0,30.06,ESE,112,0.0,-999.0,98,-99.99,,,0.05,Acu-Link.com,2013-09-07 10:07:00,
2013-09-07 03:22:00,53.6,53.0,30.06,SSE,157,0.0,-999.0,98,-99.99,,,0.05,Acu-Link.com,2013-09-07 10:22:00,
2013-09-07 03:37:00,53.6,53.0,30.06,East,90,0.0,-999.0,98,-99.99,,,0.05,Acu-Link.com,2013-09-07 10:37:00,
2013-09-07 03:52:00,53.6,53.0,30.06,NE,45,0.0,-999.0,98,-99.99,,,0.05,Acu-Link.com,2013-09-07 10:52:00,
2013-09-07 04:07:00,53.6,53.0,30.06,NE,45,0.0,-999.0,98,-99.99,,,0.05,Acu-Link.com,2013-09-07 11:07:00,
2013-09-07 04:22:00,53.6,53.0,30.06,ESE,112,0.0,-999.0,98,-99.99,,,0.05,Acu-Link.com,2013-09-07 11:22:00,
2013-09-07 04:37:00,53.6,53.0,30.06,ESE,112,0.0,-999.0,98,-99.99,,,0.05,Acu-Link.com,2013-09-07 11:37:00,
2013-09-07 04:53:00,53.6,53.0,30.06,ESE,112,0.0,-999.0,98,-99.99,,,0.05,Acu-Link.com,2013-09-07 11:53:00,
2013-09-07 05:08:00,51.8,51.3,30.06,SE,135,0.0,-999.0,98,-99.99,,,0.05,Acu-Link.com,2013-09-07 12:08:00,
2013-09-07 05:23:00,51.8,51.3,30.06,NNW,337,0.0,-999.0,98,-99.99,,,0.05,Acu-Link.com,2013-09-07 12:23:00,
2013-09-07 05:39:00,51.8,51.3,30.06,ESE,112,0.0,-999.0,98,-99.99,,,0.05,Acu-Link.com,2013-09-07 12:39:00,
2013-09-07 05:54:00,51.8,51.3,30.07,NNW,337,0.0,-999.0,98,-99.99,,,0.05,Acu-Link.com,2013-09-07 12:54:00,
2013-09-07 06:09:00,50.0,49.5,30.07,NNW,337,0.0,-999.0,98,-99.99,,,0.05,Acu-Link.com,2013-09-07 13:09:00,
2013-09-07 06:24:00,50.0,49.5,30.07,East,90,0.0,-999.0,98,-99.99,,,0.05,Acu-Link.com,2013-09-07 13:24:00,
2013-09-07 06:39:00,50.0,49.5,30.07,ESE,112,0.0,-999.0,98,-99.99,,,0.05,Acu-Link.com,2013-09-07 13:39:00,
2013-09-07 06:54:00,50.0,49.5,30.07,East,90,0.0,-999.0,98,-99.99,,,0.05,Acu-Link.com,2013-09-07 13:54:00,
2013-09-07 07:09:00,50.0,49.5,30.07,ESE,112,0.0,-999.0,98,-99.99,,,0.05,Acu-Link.com,2013-09-07 14:09:00,
2013-09-07 07:24:00,50.0,49.5,30.07,SW,225,0.0,-999.0,98,-99.99,,,0.05,Acu-Link.com,2013-09-07 14:24:00,
2013-09-07 07:39:00,50.0,49.5,30.07,WNW,292,0.0,-999.0,98,-99.99,,,0.05,Acu-Link.com,2013-09-07 14:39:00,
2013-09-07 07:54:00,51.8,51.3,30.08,ESE,112,0.0,-999.0,98,-99.99,,,0.05,Acu-Link.com,2013-09-07 14:54:00,
2013-09-07 08:09:00,51.8,51.3,30.08,ESE,112,0.0,-999.0,98,-99.99,,,0.05,Acu-Link.com,2013-09-07 15:09:00,
2013-09-07 08:25:00,53.6,53.0,30.08,NE,45,0.0,-999.0,98,-99.99,,,0.05,Acu-Link.com,2013-09-07 15:25:00,
2013-09-07 08:40:00,53.6,53.0,30.08,NE,45,0.0,-999.0,98,-99.99,,,0.05,Acu-Link.com,2013-09-07 15:40:00,
2013-09-07 08:55:00,53.6,53.0,30.08,SSE,157,0.0,-999.0,98,-99.99,,,0.05,Acu-Link.com,2013-09-07 15:55:00,
2013-09-07 09:10:00,53.6,53.0,30.08,NNW,337,0.0,-999.0,98,-99.99,,,0.05,Acu-Link.com,2013-09-07 16:10:00,
2013-09-07 09:25:00,55.4,54.8,30.08,NNW,337,0.0,-999.0,98,-99.99,,,0.05,Acu-Link.com,2013-09-07 16:25:00,
2013-09-07 09:40:00,55.4,54.8,30.08,South,180,0.0,-999.0,98,-99.99,,,0.05,Acu-Link.com,2013-09-07 16:40:00,
2013-09-07 09:55:00,57.2,54.0,30.08,SE,135,0.0,-999.0,89,-99.99,,,0.05,Acu-Link.com,2013-09-07 16:55:00,
2013-09-07 10:11:00,59.0,54.2,30.08,SW,225,0.0,-999.0,84,-99.99,,,0.05,Acu-Link.com,2013-09-07 17:11:00,
2013-09-07 10:26:00,60.8,55.3,30.07,SSE,157,0.0,-999.0,82,-99.99,,,0.05,Acu-Link.com,2013-09-07 17:26:00,
2013-09-07 10:41:00,62.6,55.3,30.07,SSW,202,0.0,-999.0,77,-99.99,,,0.05,Acu-Link.com,2013-09-07 17:41:00,
2013-09-07 10:56:00,62.6,53.8,30.06,WSW,247,0.0,-999.0,73,-99.99,,,0.05,Acu-Link.com,2013-09-07 17:56:00,
2013-09-07 11:11:00,62.6,54.9,30.07,ENE,67,0.0,-999.0,76,-99.99,,,0.05,Acu-Link.com,2013-09-07 18:11:00,
2013-09-07 11:26:00,64.4,54.8,30.06,West,270,0.0,-999.0,71,-99.99,,,0.05,Acu-Link.com,2013-09-07 18:26:00,
2013-09-07 11:41:00,68.0,54.9,30.06,West,270,0.0,-999.0,63,-99.99,,,0.05,Acu-Link.com,2013-09-07 18:41:00,
2013-09-07 11:56:00,68.0,53.1,30.05,SSE,157,0.0,-999.0,59,-99.99,,,0.05,Acu-Link.com,2013-09-07 18:56:00,
2013-09-07 12:11:00,68.0,52.2,30.05,West,270,0.0,-999.0,57,-99.99,,,0.05,Acu-Link.com,2013-09-07 19:11:00,
2013-09-07 12:27:00,69.8,53.9,30.04,ESE,112,0.0,-999.0,57,-99.99,,,0.05,Acu-Link.com,2013-09-07 19:27:00,
2013-09-07 12:42:00,69.8,50.8,30.04,South,180,0.0,-999.0,51,-99.99,,,0.05,Acu-Link.com,2013-09-07 19:42:00,
2013-09-07 12:57:00,69.8,49.8,30.03,SSE,157,0.0,-999.0,49,-99.99,,,0.05,Acu-Link.com,2013-09-07 19:57:00,
2013-09-07 13:12:00,71.6,52.0,30.03,ESE,112,0.0,-999.0,50,-99.99,,,0.05,Acu-Link.com,2013-09-07 20:12:00,
2013-09-07 13:27:00,71.6,52.5,30.03,NE,45,0.0,-999.0,51,-99.99,,,0.05,Acu-Link.com,2013-09-07 20:27:00,
2013-09-07 13:42:00,71.6,49.7,30.03,West,270,0.0,-999.0,46,-99.99,,,0.05,Acu-Link.com,2013-09-07 20:42:00,
2013-09-07 13:57:00,73.4,51.3,30.02,ESE,112,0.0,-999.0,46,-99.99,,,0.05,Acu-Link.com,2013-09-07 20:57:00,
2013-09-07 14:12:00,71.6,49.1,30.02,NE,45,0.0,-999.0,45,-99.99,,,0.05,Acu-Link.com,2013-09-07 21:12:00,
2013-09-07 14:27:00,71.6,49.7,30.01,NE,45,0.0,-999.0,46,-99.99,,,0.05,Acu-Link.com,2013-09-07 21:27:00,
2013-09-07 14:42:00,71.6,49.1,30.01,NE,45,0.0,-999.0,45,-99.99,,,0.05,Acu-Link.com,2013-09-07 21:42:00,
2013-09-07 14:57:00,71.6,46.6,30.01,SSW,202,0.0,-999.0,41,-99.99,,,0.05,Acu-Link.com,2013-09-07 21:57:00,
2013-09-07 15:12:00,73.4,48.9,30.00,NE,45,0.0,-999.0,42,-99.99,,,0.05,Acu-Link.com,2013-09-07 22:12:00,
2013-09-07 15:27:00,73.4,48.3,30.00,ESE,112,0.0,-999.0,41,-99.99,,,0.05,Acu-Link.com,2013-09-07 22:27:00,
2013-09-07 15:42:00,73.4,48.9,30.00,ESE,112,0.0,-999.0,42,-99.99,,,0.05,Acu-Link.com,2013-09-07 22:42:00,
2013-09-07 15:57:00,71.6,49.1,29.99,NNW,337,0.0,-999.0,45,-99.99,,,0.05,Acu-Link.com,2013-09-07 22:57:00,
2013-09-07 16:12:00,71.6,48.5,29.99,NE,45,0.0,-999.0,44,-99.99,,,0.05,Acu-Link.com,2013-09-07 23:12:00,
2013-09-07 16:27:00,71.6,50.3,29.99,West,270,0.0,-999.0,47,-99.99,,,0.05,Acu-Link.com,2013-09-07 23:27:00,
2013-09-07 16:42:00,71.6,50.3,29.99,West,270,0.0,-999.0,47,-99.99,,,0.05,Acu-Link.com,2013-09-07 23:42:00,
2013-09-07 16:58:00,71.6,50.3,29.98,NW,315,0.0,-999.0,47,-99.99,,,0.05,Acu-Link.com,2013-09-07 23:58:00,
2013-09-07 17:13:00,71.6,50.3,29.98,NE,45,0.0,-999.0,47,-99.99,,,0.05,Acu-Link.com,2013-09-08 00:13:00,
2013-09-07 17:28:00,71.6,49.7,29.97,SW,225,0.0,-999.0,46,-99.99,,,0.05,Acu-Link.com,2013-09-08 00:28:00,
2013-09-07 17:43:00,75.2,48.5,29.97,NE,45,0.0,-999.0,39,-99.99,,,0.05,Acu-Link.com,2013-09-08 00:43:00,
2013-09-07 17:58:00,77.0,49.4,29.97,NE,45,0.0,-999.0,38,-99.99,,,0.05,Acu-Link.com,2013-09-08 00:58:00,
2013-09-07 18:13:00,73.4,48.9,29.97,NNE,22,0.0,-999.0,42,-99.99,,,0.05,Acu-Link.com,2013-09-08 01:13:00,
2013-09-07 18:28:00,71.6,49.7,29.97,NNE,22,0.0,-999.0,46,-99.99,,,0.05,Acu-Link.com,2013-09-08 01:28:00,
2013-09-07 18:43:00,69.8,50.3,29.96,NE,45,0.0,-999.0,50,-99.99,,,0.05,Acu-Link.com,2013-09-08 01:43:00,
2013-09-07 18:58:00,68.0,49.7,29.96,NE,45,0.0,-999.0,52,-99.99,,,0.05,Acu-Link.com,2013-09-08 01:58:00,
2013-09-07 19:14:00,64.4,48.4,29.96,NE,45,0.0,-999.0,56,-99.99,,,0.05,Acu-Link.com,2013-09-08 02:14:00,
2013-09-07 19:29:00,64.4,48.8,29.96,NE,45,0.0,-999.0,57,-99.99,,,0.05,Acu-Link.com,2013-09-08 02:29:00,
2013-09-07 19:44:00,62.6,47.6,29.96,NE,45,0.0,-999.0,58,-99.99,,,0.05,Acu-Link.com,2013-09-08 02:44:00,
2013-09-07 19:59:00,62.6,48.5,29.96,NE,45,0.0,-999.0,60,-99.99,,,0.05,Acu-Link.com,2013-09-08 02:59:00,
2013-09-07 20:14:00,62.6,49.0,29.96,NE,45,0.0,-999.0,61,-99.99,,,0.05,Acu-Link.com,2013-09-08 03:14:00,
2013-09-07 20:29:00,60.8,48.5,29.97,NE,45,0.0,-999.0,64,-99.99,,,0.05,Acu-Link.com,2013-09-08 03:29:00,
2013-09-07 20:44:00,60.8,49.4,29.97,South,180,0.0,-999.0,66,-99.99,,,0.05,Acu-Link.com,2013-09-08 03:44:00,
2013-09-07 20:59:00,59.0,48.5,29.97,ESE,112,0.0,-999.0,68,-99.99,,,0.05,Acu-Link.com,2013-09-08 03:59:00,
2013-09-07 21:15:00,59.0,50.0,29.98,NE,45,0.0,-999.0,72,-99.99,,,0.05,Acu-Link.com,2013-09-08 04:15:00,
2013-09-07 21:30:00,57.2,48.6,29.97,East,90,0.0,-999.0,73,-99.99,,,0.05,Acu-Link.com,2013-09-08 04:30:00,
2013-09-07 21:45:00,57.2,49.3,29.97,East,90,0.0,-999.0,75,-99.99,,,0.05,Acu-Link.com,2013-09-08 04:45:00,
2013-09-07 22:00:00,55.4,48.0,29.97,East,90,0.0,-999.0,76,-99.99,,,0.05,Acu-Link.com,2013-09-08 05:00:00,
2013-09-07 22:15:00,55.4,48.7,29.97,South,180,0.0,-999.0,78,-99.99,,,0.05,Acu-Link.com,2013-09-08 05:15:00,
2013-09-07 22:30:00,55.4,50.0,29.97,ENE,67,0.0,-999.0,82,-99.99,,,0.05,Acu-Link.com,2013-09-08 05:30:00,
2013-09-07 22:45:00,53.6,48.9,29.97,NE,45,0.0,-999.0,84,-99.99,,,0.05,Acu-Link.com,2013-09-08 05:45:00,
2013-09-07 23:00:00,53.6,48.9,29.97,NE,45,0.0,-999.0,84,-99.99,,,0.05,Acu-Link.com,2013-09-08 06:00:00,
2013-09-07 23:15:00,53.6,48.9,29.96,NE,45,0.0,-999.0,84,-99.99,,,0.05,Acu-Link.com,2013-09-08 06:15:00,
2013-09-07 23:30:00,53.6,48.9,29.97,South,180,0.0,-999.0,84,-99.99,,,0.05,Acu-Link.com,2013-09-08 06:30:00,
2013-09-07 23:46:00,51.8,47.1,29.97,ESE,112,0.0,-999.0,84,-99.99,,,0.05,Acu-Link.com,2013-09-08 06:46:00,